When you browse on this site, cookies collect data to enhance your experience and personalize the content and advertising you see.
Visit our Privacy Policy to learn more. By continuing to use the site, you agree to this use of cookies and data.
  • In Hungary
  • List of Countries
  • For 7 days
  • Water Temperature
  • Satellite Maps
  • Weather Map
  • News
  • Weather Widgets
  • user-avatar
    Login

    Hourly Weather Pekanbaru

    Today, 18 July, Thursday

    Time Temperature Precipitation Wind Pressure Humidity
    00:00 +27°C° 1.1 mm 1 mps 755 mmHg 88%
    01:00 +26°C° 0 mm 1 mps 755 mmHg 90%
    02:00 +26°C° 0.3 mm 1 mps 755 mmHg 91%
    03:00 +25°C° 0.3 mm 1 mps 754 mmHg 93%
    04:00 +25°C° 0.3 mm 1 mps 754 mmHg 94%
    05:00 +25°C° 0 mm 1 mps 754 mmHg 94%
    06:00 +25°C° 0 mm 1 mps 755 mmHg 93%
    07:00 +25°C° 0 mm 1 mps 755 mmHg 96%
    08:00 +27°C° 0 mm 1 mps 755 mmHg 87%
    09:00 +29°C° 0 mm 2 mps 755 mmHg 77%
    10:00 +30°C° 0 mm 2 mps 755 mmHg 68%
    11:00 +32°C° 0 mm 2 mps 755 mmHg 63%
    12:00 +34°C° 0 mm 2 mps 754 mmHg 58%
    13:00 +35°C° 0 mm 2 mps 754 mmHg 53%
    14:00 +35°C° 0 mm 2 mps 753 mmHg 53%
    15:00 +34°C° 0 mm 1 mps 752 mmHg 54%
    16:00 +34°C° 0 mm 1 mps 751 mmHg 54%
    17:00 +33°C° 0 mm 1 mps 752 mmHg 61%
    18:00 +31°C° 0 mm 1 mps 752 mmHg 68%
    19:00 +29°C° 0 mm 1 mps 753 mmHg 74%
    20:00 +29°C° 0 mm 1 mps 753 mmHg 76%
    21:00 +28°C° 0 mm 1 mps 754 mmHg 77%
    22:00 +28°C° 0 mm 1 mps 754 mmHg 78%
    23:00 +27°C° 0 mm 1 mps 754 mmHg 80%

    Tomorrow, 19 July, Friday

    Time Temperature Precipitation Wind Pressure Humidity
    00:00 +27°C° 0 mm 1 mps 755 mmHg 82%
    01:00 +26°C° 0 mm 1 mps 755 mmHg 84%
    02:00 +26°C° 0 mm 1 mps 754 mmHg 85%
    03:00 +25°C° 0 mm 1 mps 754 mmHg 87%
    04:00 +25°C° 0 mm 1 mps 754 mmHg 88%
    05:00 +25°C° 0 mm 1 mps 754 mmHg 87%
    06:00 +25°C° 0 mm 1 mps 755 mmHg 86%
    07:00 +25°C° 0 mm 1 mps 755 mmHg 86%
    08:00 +26°C° 0 mm 2 mps 755 mmHg 79%
    09:00 +28°C° 0 mm 2 mps 756 mmHg 71%
    10:00 +30°C° 0 mm 2 mps 756 mmHg 64%
    11:00 +31°C° 0 mm 2 mps 755 mmHg 59%
    12:00 +34°C° 0 mm 2 mps 755 mmHg 54%
    13:00 +35°C° 0 mm 2 mps 754 mmHg 49%
    14:00 +35°C° 0 mm 2 mps 754 mmHg 49%
    15:00 +34°C° 0 mm 1 mps 753 mmHg 48%
    16:00 +34°C° 0 mm 1 mps 753 mmHg 47%
    17:00 +32°C° 0 mm 1 mps 753 mmHg 54%
    18:00 +30°C° 0 mm 1 mps 753 mmHg 61%
    19:00 +26°C° 0 mm 0 mps 754 mmHg 69%
    20:00 +25°C° 0 mm 0 mps 754 mmHg 70%
    21:00 +24°C° 0 mm 0 mps 755 mmHg 71%
    22:00 +24°C° 0 mm 0 mps 755 mmHg 73%
    23:00 +23°C° 0 mm 0 mps 755 mmHg 74%

    Day after tomorrow, 20 July, Saturday

    Time Temperature Precipitation Wind Pressure Humidity
    00:00 +23°C° 0 mm 0 mps 755 mmHg 76%
    01:00 +22°C° 0 mm 0 mps 755 mmHg 78%
    02:00 +22°C° 0 mm 0 mps 754 mmHg 79%
    03:00 +22°C° 0 mm 0 mps 754 mmHg 80%
    04:00 +22°C° 0 mm 0 mps 754 mmHg 81%
    05:00 +24°C° 0 mm 1 mps 754 mmHg 82%
    06:00 +24°C° 0 mm 1 mps 754 mmHg 83%
    07:00 +24°C° 0 mm 1 mps 755 mmHg 84%
    08:00 +27°C° 0 mm 1 mps 755 mmHg 76%
    09:00 +29°C° 0 mm 1 mps 755 mmHg 69%
    10:00 +32°C° 0 mm 2 mps 756 mmHg 61%
    11:00 +32°C° 0.1 mm 2 mps 755 mmHg 59%
    12:00 +34°C° 0.1 mm 2 mps 754 mmHg 57%
    13:00 +35°C° 0.1 mm 2 mps 754 mmHg 55%
    14:00 +34°C° 0.1 mm 1 mps 753 mmHg 56%
    15:00 +34°C° 0.1 mm 1 mps 753 mmHg 56%
    16:00 +34°C° 0.1 mm 1 mps 752 mmHg 57%
    17:00 +32°C° 0.2 mm 1 mps 752 mmHg 66%
    18:00 +28°C° 0.2 mm 0 mps 753 mmHg 75%
    19:00 +26°C° 0.2 mm 0 mps 753 mmHg 83%
    20:00 +26°C° 0 mm 0 mps 754 mmHg 85%
    21:00 +25°C° 0 mm 0 mps 754 mmHg 86%
    22:00 +25°C° 0 mm 0 mps 755 mmHg 87%
    23:00 +24°C° 0 mm 0 mps 755 mmHg 89%

    21 July, Sunday

    Time Temperature Precipitation Wind Pressure Humidity
    00:00 +24°C° 0 mm 0 mps 755 mmHg 91%
    01:00 +24°C° 0 mm 0 mps 755 mmHg 92%
    02:00 +23°C° 0 mm 0 mps 754 mmHg 93%
    03:00 +23°C° 0 mm 0 mps 754 mmHg 94%
    04:00 +23°C° 0 mm 0 mps 754 mmHg 95%
    05:00 +23°C° 0 mm 0 mps 754 mmHg 94%
    06:00 +23°C° 0 mm 0 mps 754 mmHg 93%
    07:00 +23°C° 0 mm 0 mps 755 mmHg 92%
    08:00 +28°C° 0 mm 1 mps 755 mmHg 82%
    09:00 +30°C° 0 mm 1 mps 755 mmHg 72%
    10:00 +32°C° 0 mm 1 mps 755 mmHg 62%
    11:00 +32°C° 0.6 mm 2 mps 755 mmHg 65%
    12:00 +32°C° 0.6 mm 2 mps 754 mmHg 68%
    13:00 +32°C° 0.6 mm 2 mps 753 mmHg 71%
    14:00 +32°C° 1 mm 2 mps 753 mmHg 72%
    15:00 +32°C° 1 mm 2 mps 752 mmHg 73%
    16:00 +31°C° 1 mm 1 mps 752 mmHg 74%
    17:00 +30°C° 0.1 mm 1 mps 752 mmHg 78%
    18:00 +29°C° 0.1 mm 1 mps 753 mmHg 83%
    19:00 +27°C° 0.1 mm 1 mps 753 mmHg 87%
    20:00 +27°C° 0 mm 1 mps 754 mmHg 88%
    21:00 +27°C° 0 mm 1 mps 755 mmHg 89%
    22:00 +26°C° 0 mm 1 mps 755 mmHg 90%
    23:00 +26°C° 0.2 mm 1 mps 755 mmHg 92%

    22 July, Monday

    Time Temperature Precipitation Wind Pressure Humidity
    00:00 +26°C° 0.2 mm 1 mps 755 mmHg 93%
    01:00 +25°C° 0.2 mm 1 mps 754 mmHg 95%
    02:00 +25°C° 0 mm 1 mps 754 mmHg 95%
    03:00 +25°C° 0 mm 1 mps 754 mmHg 95%
    04:00 +25°C° 0 mm 1 mps 754 mmHg 96%
    05:00 +25°C° 0 mm 1 mps 754 mmHg 95%
    06:00 +25°C° 0 mm 1 mps 754 mmHg 94%
    07:00 +25°C° 0 mm 1 mps 755 mmHg 93%
    08:00 +27°C° 0 mm 1 mps 755 mmHg 84%
    09:00 +30°C° 0 mm 1 mps 755 mmHg 74%
    10:00 +32°C° 0 mm 2 mps 755 mmHg 65%
    11:00 +31°C° 0.1 mm 2 mps 755 mmHg 67%
    12:00 +31°C° 0.1 mm 2 mps 754 mmHg 69%
    13:00 +30°C° 0.1 mm 2 mps 754 mmHg 71%
    14:00 +31°C° 0.5 mm 2 mps 753 mmHg 72%
    15:00 +31°C° 0.5 mm 2 mps 753 mmHg 74%
    16:00 +31°C° 0.5 mm 2 mps 753 mmHg 75%
    17:00 +29°C° 0.2 mm 2 mps 753 mmHg 80%
    18:00 +28°C° 0.2 mm 2 mps 754 mmHg 86%
    19:00 +26°C° 0.2 mm 1 mps 754 mmHg 91%
    20:00 +26°C° 0 mm 1 mps 755 mmHg 92%
    21:00 +26°C° 0 mm 1 mps 755 mmHg 93%
    22:00 +25°C° 0 mm 1 mps 756 mmHg 94%
    23:00 +25°C° 0.1 mm 1 mps 756 mmHg 94%

    23 July, Tuesday

    Time Temperature Precipitation Wind Pressure Humidity
    00:00 +23°C° 0.1 mm 0 mps 756 mmHg 95%
    01:00 +23°C° 0.1 mm 0 mps 755 mmHg 95%
    02:00 +23°C° 0 mm 0 mps 755 mmHg 95%
    03:00 +23°C° 0 mm 0 mps 754 mmHg 95%
    04:00 +23°C° 0 mm 0 mps 754 mmHg 95%
    05:00 +23°C° 0 mm 0 mps 754 mmHg 94%
    06:00 +23°C° 0 mm 0 mps 755 mmHg 94%
    07:00 +25°C° 0 mm 1 mps 755 mmHg 93%
    08:00 +26°C° 0 mm 1 mps 755 mmHg 90%
    09:00 +27°C° 0 mm 1 mps 756 mmHg 86%
    10:00 +27°C° 0 mm 1 mps 756 mmHg 83%
    11:00 +28°C° 0.1 mm 1 mps 756 mmHg 79%
    12:00 +29°C° 0.1 mm 1 mps 755 mmHg 76%
    13:00 +30°C° 0.1 mm 1 mps 755 mmHg 72%
    14:00 +30°C° 0.2 mm 1 mps 754 mmHg 72%
    15:00 +30°C° 0.2 mm 1 mps 754 mmHg 72%
    16:00 +30°C° 0.2 mm 2 mps 754 mmHg 72%
    17:00 +29°C° 0.1 mm 1 mps 754 mmHg 77%
    18:00 +28°C° 0.1 mm 1 mps 755 mmHg 82%
    19:00 +26°C° 0.1 mm 1 mps 755 mmHg 88%
    20:00 +26°C° 0 mm 1 mps 756 mmHg 89%
    21:00 +26°C° 0 mm 1 mps 756 mmHg 90%
    22:00 +26°C° 0 mm 1 mps 757 mmHg 91%
    23:00 +26°C° 0 mm 1 mps 757 mmHg 91%
    Show more